Cosmos 1536 - Orbit

View from above orbital plane
View from above orbital plane
View from above satellite
View from above satellite

Ground track
Ground track

The orbit data is extracted from the following two-line orbital elements,

1 14699U 84013A   13140.49974098  .00002087  00000-0  16299-3 0  8057
2 14699 082.5260 326.8274 0015343 081.5304 278.7659 15.00540607589434
Epoch (UTC): 20 May 2013 11:59:37
Eccentricity: 0.0015343
inclination: 82.5260°
perigee height: 554 km
apogee height: 576 km
right ascension of ascending node: 326.8274°
argument of perigee: 81.5304°
revolutions per day: 15.00540607
mean anomaly at epoch: 278.7659°
orbit number at epoch: 58943

The dashed part of the orbit path shows where the satellite is in the earth's shadow,  

Developed and maintained by Chris Peat, Heavens-Above GmbH. Please read the updated FAQ before sending e-mail. Imprint. DLR